WGS F1 (USA 195)

Last updated on Sun Jun 21 2026 00:03:04 GMT+0000 (Coordinated Universal Time)

1 32258U 07046A 26171.38357711 -.00000272 00000+0 00000+0 0 9999 2 32258 0.0383 86.7161 0000212 317.9374 319.5139 1.00271069 52367
UTC large
Height (km)
Speed (km/s)
/
Latitude / Longitude
Inclination (degrees)
Orbital Period (minutes)
Azimuth
Elevation
Range (km)
Doppler Factor

Next 0 passes for location: London (51.5072 / 0.1276)

No passes found over London.
WGS F1 (USA 195)